Preview of NWS' New Version of Forecast
This preview is not operational and should not be used for support decisions.

Regional Weather Roundup (RWR)

Issued by New York, NY (OKX)

                            
000
ASUS41 KOKX 200713
RWROKX

Regional Weather Roundup
National Weather Service New York NY
300 AM EDT MON MAY 20 2019

Note: "FAIR" indicates few or no clouds below 12,000 feet with no
significant weather and/or obstructions to visibility.

NYZ071-072-176-178-NJZ106-104-200800-
New York City Metro Area
  
CITY           SKY/WX    TMP DP  RH WIND       PRES   REMARKS
Central Park   MOCLDY    67  65  93 CALM      29.92F                  
Bronx Lehman C   N/A     70  66  88 S3          N/A                   
LaGuardia Arpt FAIR      70  65  84 S6        29.88F                  
Queens College   N/A     66  64  94 SE6         N/A                   
Kennedy Intl   CLOUDY    64  64 100 SE7       29.91F                  
Breezy Point     N/A     59 N/A N/A SE6         N/A                   
Brooklyn Coll    N/A     68  63  83 SE3         N/A                   
Staten Island    N/A     70  66  88 S3          N/A                   
Newark/Liberty MOCLDY    70  66  87 CALM      29.89F THUNDER          
Teterboro      FAIR      69  65  86 S6        29.87F                  
$$
 
NYZ177-179-078>081-200800-
Long Island New York
  
CITY           SKY/WX    TMP DP  RH WIND       PRES   REMARKS
Jones Beach      N/A     61 N/A N/A S8          N/A                   
Wantagh          N/A     61  61 100 SE6         N/A                   
Hempstead        N/A     64  63  94 SE5       29.94F                  
Matinecock Pt    N/A     66 N/A N/A S5          N/A                   
Farmingdale    FAIR      63  61  93 S6        29.91F                  
MacArthur/ISP  MOCLDY    63  63 100 CALM      29.92F                  
Stony Brook      N/A     64  64 100 S3          N/A                   
Shirley        MOCLDY    63  60  90 S6        29.93F                  
Mt Sinai Harb    N/A    N/A N/A N/A S7          N/A                   
Westhampton    FAIR      63  61  93 SW9       29.95F                  
East Hampton   MOCLDY    64  61  92 SW10G18   29.94S                  
Southold         N/A     66  63  88 SW6         N/A                   
Montauk          N/A     63  62  97 SW9G18    29.94F                  
$$
 
NYZ052-065-067-200800-
Hudson Valley
  
CITY           SKY/WX    TMP DP  RH WIND       PRES   REMARKS
White Plains   MOCLDY    65  64  97 S6        29.88F FOG              
Larchmont Harb   N/A     63 N/A N/A SE10        N/A                   
Croton On Huds   N/A     66 N/A N/A SE8G14      N/A                   
Somers           N/A     64  64 100 SE2         N/A                   
Brewster         N/A     64  64 100 S2          N/A                   
Newburgh       CLOUDY    66  66 100 W6        29.85F                  
Montgomery     FAIR      65  64  97 CALM      29.84F                  
Otisville        N/A     64  64 100 S3          N/A                   
Warwick          N/A     70  64  83 S8          N/A                   
Suffern          N/A     64  64 100 S3          N/A                   
Poughkeepsie   MOCLDY    67  64  90 W3        29.83F                  
Albany         CLOUDY    69  64  84 S15G22    29.77F                  
$$
 
NJZ001-105-106-008-010-013-015-019>022-104-200800-
New Jersey
  
CITY           SKY/WX    TMP DP  RH WIND       PRES   REMARKS
Newark/Liberty MOCLDY    70  66  87 CALM      29.89F THUNDER          
Teterboro      FAIR      69  65  86 S6        29.87F                  
Caldwell       CLOUDY    68  67  96 W3        29.90F                  
Somerville     LGT RAIN  67  66  97 CALM      29.88  FOG              
Linden         FAIR      70  66  88 CALM      29.90S                  
Perth Amboy      N/A     68 N/A N/A SE5         N/A                   
Sussex         LGT RAIN  65  64  97 SW5       29.88S                  
Andover          N/A     66  64  93 S5        29.89S                  
Trenton        MOCLDY    68  64  87 CALM      29.89F                  
Millville      FAIR      69  65  86 VRB3      29.90F                  
Atlantic City  FAIR      67  64  90 S7        29.92F                  
Wrightstown    FAIR      67  63  87 CALM      29.87                   
Toms River     FAIR      69  65  86 SW8       29.91F                  
Belmar         FAIR      68  63  84 CALM      29.92F                  
$$
 
PAZ047>061-062-071-200800-
Eastern Pennsylvania
  
CITY           SKY/WX    TMP DP  RH WIND       PRES   REMARKS
Philadelphia   MOCLDY    72  64  76 S5        29.88F                  
Allentown      MOCLDY    70  65  84 SE7       29.86F                  
Scranton       FAIR      68  64  87 S6        29.84F                  
$$

CTZ002-004>006-009-010-012-RIZ004-006-007-MAZ004-011-015-200800-
Southern New England

 In CT
  
CITY           SKY/WX    TMP DP  RH WIND       PRES   REMARKS
Bradley Intl   CLOUDY    67  65  93 S10       29.86F FOG              
Hartford       LGT RAIN  67  65  93 S9        29.89S FOG              
Danbury        LGT RAIN  66  63  90 CALM      29.88F                  
Wtrbury/Oxford RAIN      66  64  93 VRB5      29.91F                  
Norwalk Harbor   N/A     63 N/A N/A S6          N/A                   
Bridgeport     LGT RAIN  63  63 100 CALM      29.89F FOG              
Meriden        RAIN      66  64  93 S7        29.91R FOG              
New Haven      LGT RAIN  65  63  93 S6        29.91F FOG              
Chester        LGT RAIN  64  64 100 SW8       29.94R                  
Groton         CLOUDY    63  59  87 NW3       29.93S FOG              
Willimantic    LGT RAIN  67  64  90 S5        29.90F                  

 In RI
  
CITY           SKY/WX    TMP DP  RH WIND       PRES   REMARKS
Providence     CLOUDY    66  64  93 W13       29.92S                  
Block Island   FOG       59  58  96 SW17      29.94F VSB 1/2          
Westerly       FOG       60  60 100 S7        29.93F VSB 1/2          
 
In MA
  
CITY           SKY/WX    TMP DP  RH WIND       PRES   REMARKS
Boston         TSTM      68  64  87 SW16      29.86                   
Worcester      LGT RAIN  64  63  96 SW20      29.90R                  
Westfield      MOCLDY    66  64  93 S9        29.85                   
Provincetown   CLOUDY    58  57  97 SW18G24   29.90S                  
Nantucket      MOCLDY    55  54  96 SW9       29.97R                  
$$

ANZ330-335-338-340-345-350-353-355-200800-
Coastal Marine Observations

  
STATION/POSITION TIME  SKY/WX   TEMP    WIND        PRES    VSBY  WAVE
                                AIR SEA DIR/SP/G                  HT/PER
                 (UTC)          (F)     (DEG/KT/KT) (MB)    (MI)  (FT/S)
NY Harb Entrance 0650            59 56  180/  6/  8 1013.1          4/ 5
20 S Fire Island 0650            57 53  200/  6/  8 1013.4          4/ 6
Great South Bay  0630            62 61  270/ 14/ 17   N/A
23 SSW Montauk P 0650            56 53  250/  6/  6 1014.8          3/ 6
15 E Barnegat Li 0700               58                N/A           5/ 6
Hudson Canyon    0650            58 52  190/ 14/ 16 1015.0          4/ 6
Kings Point      0642            67 58  190/  6/  7 1013.3
Execution Rocks  NOT AVBL
Western LI Sound NOT AVBL
Central LI Sound NOT AVBL
Robbins Reef     0642            70     150/  6/  7 1012.3
$$


>>>>>>>>>>>>>>>>>>>>>>>>>>>> KEY <<<<<<<<<<<<<<<<<<<<<<<<<<<
>                                                          <
>     SKY/WX - Sky Condition/Present Weather               <
>     TMP    - Temperature in Fahrenheit                   <
>     DP     - Dew Point in Fahrenheit                     <
>     RH     - Relative Humidity in Percent                <
>     WIND   - Direction (from) and Speed in MPH           <
>     PRES   - Mean Sea Level Pressure (inches of Hg)      <
>     WCI    - Wind Chill Index                            <
>     VSB    - Visibility in Miles                         <
>     HX     - Heat Index                                  <
>     TC     - Temperature in Celsius                      <
>     VRB    - Variable Wind Direction                     <
>                                                          <
>>>>>>>>>>>>>>>>>>>>>>>>>>>> KEY <<<<<<<<<<<<<<<<<<<<<<<<<<<